User: anonymous   Login
Location: Unspecified
(0.0000°N, 0.0000°E)
Time: 00:55:23
(UTC+00:00)
Language:

ARKYD 6A - Orbit

View from above orbital plane
View from above orbital plane
View from above satellite
View from above satellite

Ground track
Ground track

The orbit data is extracted from the following two-line orbital elements,

1 43130U 18004V   21023.47142045  .00001136  00000-0  49096-4 0  9992
2 43130  97.4244  98.6631 0009581  10.7266 349.4174 15.24507557168548
Epoch (UTC): 23 January 2021 11:18:50
Eccentricity: 0.0009581
inclination: 97.4244°
perigee height: 485 km
apogee height: 499 km
right ascension of ascending node: 98.6631°
argument of perigee: 10.7266°
revolutions per day: 15.24507557
mean anomaly at epoch: 349.4174°
orbit number at epoch: 16854

The dashed part of the orbit path shows where the satellite is in the earth's shadow,  

DLR